This is the latest recevied weather packets stored in our database for station/object KJ4OVR-WX. If no packets are shown the sender has not sent any weather packets the latest 10 day(s).
| Time | Temp. | Humidity | Pressure | Rain* | Wind** | Luminosity | Snow |
|---|---|---|---|---|---|---|---|
| 1777648817 | 16.11° C | 64% | 1016.1 hPa | 0 mm | - | - | - |
| 1777648523 | 16.11° C | 66% | 1016.2 hPa | 0 mm | - | - | - |
| 1777648217 | 16.11° C | 68% | 1016.1 hPa | 0 mm | - | - | - |
| 1777647917 | 16.11° C | 69% | 1016 hPa | 0 mm | - | - | - |
| 1777647618 | 15.56° C | 69% | 1015.9 hPa | 0 mm | - | - | - |
| 1777647317 | 15.56° C | 70% | 1015.9 hPa | 0 mm | - | - | - |
| 1777646718 | 15° C | 74% | 1015.9 hPa | 0 mm | - | - | - |
| 1777646418 | 14.44° C | 76% | 1016 hPa | 0 mm | - | - | - |
| 1777646119 | 14.44° C | 77% | 1016.1 hPa | 0 mm | - | - | - |
| 1777645818 | 13.89° C | 77% | 1016.1 hPa | 0 mm | - | - | - |
| 1777645518 | 13.89° C | 78% | 1016.2 hPa | 0 mm | - | - | - |
| 1777645218 | 13.33° C | 80% | 1016.2 hPa | 0 mm | - | - | - |
| 1777644918 | 13.33° C | 81% | 1016.3 hPa | 0 mm | - | - | - |
| 1777644618 | 12.78° C | 84% | 1016.2 hPa | 0 mm | - | - | - |
| 1777644318 | 12.78° C | 84% | 1016.2 hPa | 0 mm | - | - | - |
| 1777643718 | 12.78° C | 85% | 1016.4 hPa | 0 mm | - | - | - |
| 1777643421 | 12.22° C | 86% | 1016.4 hPa | 0 mm | - | - | - |
| 1777643119 | 12.22° C | 87% | 1016.4 hPa | 0 mm | - | - | - |
| 1777642819 | 12.22° C | 88% | 1016.2 hPa | 0 mm | - | - | - |
| 1777642518 | 11.67° C | 88% | 1016.1 hPa | 0 mm | - | - | - |
| 1777642218 | 11.67° C | 89% | 1016.2 hPa | 0 mm | - | - | - |
| 1777641919 | 11.67° C | 89% | 1016.2 hPa | 0 mm | - | - | - |
| 1777641618 | 11.11° C | 90% | 1016.1 hPa | 0 mm | - | - | - |
| 1777641019 | 11.11° C | 90% | 1015.8 hPa | 0 mm | - | - | - |
| 1777638919 | 9.44° C | 93% | 1016.3 hPa | 0 mm | - | - | - |
* Rain latest hour (hover to see other rain measurements)
** Current wind speed in m/s (hover to see current wind gust speed)